Location: Clair
(33.8067°N, 117.9845°W)
Time: 17:16:13
(UTC+00:00)

Cosmos 2297 Rocket - Pass Details

Date: 14 February 2026
Orbit: 838 x 843 km, 71.0° (Epoch: 8 March)

Event Time Altitude Azimuth Distance (km) Brightness Sun altitude
Exits shadow 13:10:54 18° 225° (SW) 1,963 3.7 -18.5°
Drops below altitude 10° 13:12:49 10° 208° (SSW) 2,446 4.4 -18.1°
Sets 13:15:42 0° 194° (SSW) 3,375 5.2 -17.5°
